"Pseudo-MPEC" for MRO-CENT

Created Fri May 3 10:22:53 2013 using Find_Orb

Astrometry:
MRO-CENT      C2005 08 15.28474 01 51 18.25 +40 32 08.4          18.1 R      I77
MRO-CENT      C2005 08 15.30829 01 51 05.21 +40 31 56.2          18.4 R      I77
MRO-CENT      C2005 08 15.32191 01 50 57.76 +40 31 42.8          18.2 R      I77

Station data:
(I77) CEAMIG-REA Observatory, Belo Horizonte (S19.8304 W43.9975).   Observers
    C. Jacques, E. Pimentel.  Measurer C. Jacques.  0.30-m f/3.0
    Schmidt-Cassegrain + CCD.

Orbital elements:  MRO-CENT
   Perigee 2005 Aug 11.259144 +/- 2.45 TT =  6:13:10 (JD 2453593.759144)
Epoch 2005 Aug 12.0 TT = JDT 2453594.5                        Find_Orb
q  1525.9632 +/- 13780
H   26.3  G 0.15                    Peri.  334.4981 +/- 120
                                    Node   194.1517 +/- 310
e   1.041329 +/- 59.2               Incl.  105.5361 +/- 350
From 3 observations 2005 Aug. 15 (53.5 min); mean residual 0".000.
LAUNCH at  11 Aug 2005  6:19:57.68 lat +74.11183 lon E35.49608

Residuals in arcseconds:
050815 I77 .000  .000     050815 I77 .000  .000     050815 I77 .000  .000

Ephemerides:
Date (UT)    RA              Dec         delta   r     elong  mag
---- -- --  ------------   ------------  ------ ------ -----  ---
2005 08 12  01 54 09.715   +41 47 57.46  279167 1.0136  96.4 15.6
2005 08 13  01 52 09.239   +40 48 25.02  587099 1.0137  98.0 17.1
2005 08 14  01 51 31.832   +40 29 05.20  885053 1.0139  99.1 18.0
2005 08 15  01 51 13.495   +40 19 08.66  .00788 1.0142 100.1 18.6
2005 08 16  01 51 02.634   +40 12 55.87  .00983 1.0145 101.0 19.0
2005 08 17  01 50 55.358   +40 08 35.69  .01177 1.0149 101.9 19.4
2005 08 18  01 50 49.861   +40 05 20.47  .01370 1.0153 102.8 19.7
2005 08 19  01 50 45.076   +40 02 45.73  .01562 1.0158 103.7 19.9
2005 08 20  01 50 40.238   +40 00 36.99  .01753 1.0164 104.6 20.1
2005 08 21  01 50 34.734   +39 58 44.42  .01944 1.0170 105.5 20.3
2005 08 22  01 50 28.054   +39 57 00.63  .02134 1.0176 106.4 20.5
2005 08 23  01 50 19.776   +39 55 19.64  .02323 1.0183 107.3 20.7